| time (UTC) | temp C | wind direction | speed KPH | gust KPH | rain 1hr cm | rain 24hr cm | rain mn cm | humidity % | barometer mb |
| 20260502130415 | 14 | 130 | 12.9 | 17.7 | 0.00 | 0.00 | 0.00 | 82 | 1018.2 |
| 20260502123410 | 13 | 128 | 3.2 | 3.2 | 0.00 | 0.00 | 0.00 | 85 | 1018.1 |
| 20260502122910 | 13 | 129 | 3.2 | 4.8 | 0.00 | 0.00 | 0.00 | 86 | 1018.0 |
| 20260502122410 | 13 | 128 | 3.2 | 3.2 | 0.00 | 0.00 | 0.00 | 86 | 1017.9 |
| 20260502121912 | 13 | 128 | 3.2 | 3.2 | 0.00 | 0.00 | 0.00 | 87 | 1018.0 |
| 20260502121410 | 13 | 127 | 1.6 | 3.2 | 0.00 | 0.00 | 0.00 | 87 | 1017.9 |
| 20260502120910 | 13 | 126 | 1.6 | 3.2 | 0.00 | 0.00 | 0.00 | 88 | 1017.8 |
| 20260502120410 | 13 | 126 | 1.6 | 1.6 | 0.00 | 0.00 | 0.00 | 88 | 1017.8 |
| 20260502115910 | 13 | 127 | 3.2 | 3.2 | 0.00 | 0.00 | 0.00 | 88 | 1017.6 |
| 20260502115410 | 13 | 127 | 1.6 | 3.2 | 0.00 | 0.00 | 0.00 | 89 | 1017.5 |
| 20260502114911 | 13 | 130 | 3.2 | 3.2 | 0.00 | 0.00 | 0.00 | 89 | 1017.4 |
| 20260502114410 | 13 | 133 | 3.2 | 3.2 | 0.00 | 0.00 | 0.00 | 89 | 1017.3 |
| 20260502113910 | 13 | 133 | 3.2 | 3.2 | 0.00 | 0.00 | 0.00 | 89 | 1017.2 |
| 20260502113410 | 13 | 136 | 3.2 | 4.8 | 0.00 | 0.00 | 0.00 | 89 | 1017.0 |
| 20260502112910 | 13 | 134 | 3.2 | 3.2 | 0.00 | 0.00 | 0.00 | 89 | 1016.9 |
| 20260502112410 | 13 | 133 | 1.6 | 3.2 | 0.00 | 0.00 | 0.00 | 88 | 1016.9 |
| 20260502111910 | 13 | 130 | 3.2 | 3.2 | 0.00 | 0.00 | 0.00 | 88 | 1016.7 |
| 20260502111410 | 13 | 131 | 1.6 | 3.2 | 0.00 | 0.00 | 0.00 | 88 | 1016.8 |
| 20260502110910 | 13 | 132 | 3.2 | 3.2 | 0.00 | 0.00 | 0.00 | 88 | 1016.8 |
| 20260502110410 | 13 | 131 | 3.2 | 3.2 | 0.00 | 0.00 | 0.00 | 88 | 1016.7 |
| 20260502105910 | 13 | 134 | 3.2 | 3.2 | 0.00 | 0.00 | 0.00 | 88 | 1016.6 |
| 20260502105410 | 13 | 132 | 1.6 | 1.6 | 0.00 | 0.00 | 0.00 | 88 | 1016.6 |
| 20260502104910 | 13 | 135 | 1.6 | 1.6 | 0.00 | 0.00 | 0.00 | 88 | 1016.7 |
| 20260502104410 | 13 | 132 | 1.6 | 1.6 | 0.00 | 0.00 | 0.00 | 88 | 1016.7 |
| 20260502103910 | 13 | 115 | 1.6 | 3.2 | 0.00 | 0.00 | 0.00 | 88 | 1016.6 |
| 20260502103410 | 13 | 139 | 3.2 | 3.2 | 0.00 | 0.00 | 0.00 | 88 | 1016.6 |
| 20260502102910 | 13 | 130 | 3.2 | 3.2 | 0.00 | 0.00 | 0.00 | 88 | 1016.6 |
| 20260502102410 | 13 | 140 | 3.2 | 3.2 | 0.00 | 0.00 | 0.00 | 89 | 1016.4 |
| 20260502101910 | 13 | 123 | 3.2 | 3.2 | 0.00 | 0.00 | 0.00 | 89 | 1016.3 |
| 20260502101410 | 13 | 47 | 9.7 | 14.5 | 0.00 | 0.00 | 0.00 | 89 | 1016.2 |
| 20260502100910 | 13 | 135 | 3.2 | 3.2 | 0.00 | 0.00 | 0.00 | 89 | 1016.3 |
| 20260502100410 | 13 | 135 | 3.2 | 3.2 | 0.00 | 0.00 | 0.00 | 89 | 1016.3 |
| 20260502091410 | 13 | 133 | 3.2 | 3.2 | 0.00 | 0.00 | 0.00 | 89 | 1015.7 |
| 20260502090910 | 13 | 131 | 3.2 | 3.2 | 0.00 | 0.00 | 0.00 | 89 | 1015.6 |
| 20260502090410 | 14 | 132 | 3.2 | 3.2 | 0.00 | 0.00 | 0.00 | 89 | 1015.6 |
| 20260502071410 | 14 | 104 | 3.2 | 3.2 | 0.00 | 0.00 | 0.00 | 88 | 1015.3 |
| 20260502070910 | 14 | 127 | 1.6 | 3.2 | 0.00 | 0.00 | 0.00 | 88 | 1015.4 |
| 20260502070412 | 14 | 128 | 1.6 | 3.2 | 0.00 | 0.00 | 0.00 | 88 | 1015.4 |
| 20260502065910 | 14 | 121 | 3.2 | 3.2 | 0.00 | 0.00 | 0.00 | 88 | 1015.5 |
| 20260502065411 | 14 | 131 | 1.6 | 3.2 | 0.00 | 0.00 | 0.00 | 88 | 1015.6 |
| 20260502064910 | 14 | 143 | 3.2 | 3.2 | 0.00 | 0.00 | 0.00 | 88 | 1015.4 |
| 20260502064414 | 14 | 142 | 3.2 | 3.2 | 0.00 | 0.00 | 0.00 | 88 | 1015.2 |
| 20260502063910 | 14 | 128 | 1.6 | 3.2 | 0.00 | 0.00 | 0.00 | 88 | 1015.0 |
| 20260502063411 | 14 | 111 | 1.6 | 3.2 | 0.00 | 0.00 | 0.00 | 88 | 1015.0 |
| 20260502062910 | 14 | 157 | 3.2 | 3.2 | 0.00 | 0.00 | 0.00 | 88 | 1015.1 |
| 20260502062411 | 14 | 132 | 1.6 | 1.6 | 0.00 | 0.00 | 0.00 | 88 | 1014.9 |
| 20260502061910 | 14 | 130 | 1.6 | 1.6 | 0.00 | 0.00 | 0.00 | 88 | 1014.7 |
| 20260502061411 | 14 | 129 | 1.6 | 3.2 | 0.00 | 0.00 | 0.00 | 88 | 1014.7 |
| 20260502060910 | 14 | 139 | 1.6 | 1.6 | 0.00 | 0.00 | 0.00 | 89 | 1014.6 |
| 20260502060410 | 14 | 147 | 1.6 | 1.6 | 0.00 | 0.00 | 0.00 | 89 | 1014.6 |
| 20260502055911 | 14 | 121 | 3.2 | 3.2 | 0.00 | 0.00 | 0.00 | 89 | 1014.5 |
| 20260502055410 | 15 | 129 | 1.6 | 1.6 | 0.00 | 0.00 | 0.00 | 89 | 1014.4 |
| 20260502054910 | 15 | 131 | 3.2 | 3.2 | 0.00 | 0.00 | 0.00 | 89 | 1014.4 |
| 20260502054410 | 15 | 142 | 3.2 | 3.2 | 0.00 | 0.00 | 0.00 | 89 | 1014.2 |
| 20260502053910 | 15 | 130 | 4.8 | 4.8 | 0.00 | 0.00 | 0.00 | 89 | 1014.2 |
| 20260502053410 | 15 | 133 | 4.8 | 4.8 | 0.00 | 0.00 | 0.00 | 89 | 1014.3 |
| 20260502052911 | 15 | 132 | 3.2 | 4.8 | 0.00 | 0.00 | 0.00 | 90 | 1014.3 |
| 20260502052410 | 15 | 131 | 4.8 | 4.8 | 0.00 | 0.00 | 0.00 | 90 | 1014.2 |
| 20260502051915 | 15 | 130 | 3.2 | 4.8 | 0.00 | 0.00 | 0.00 | 90 | 1014.3 |
| 20260502051410 | 15 | 130 | 3.2 | 3.2 | 0.00 | 0.00 | 0.00 | 90 | 1014.2 |
| 20260502050911 | 15 | 128 | 3.2 | 4.8 | 0.00 | 0.00 | 0.00 | 90 | 1014.1 |
| 20260502050410 | 15 | 129 | 3.2 | 4.8 | 0.00 | 0.00 | 0.00 | 90 | 1014.3 |
| 20260502045910 | 15 | 129 | 3.2 | 4.8 | 0.00 | 0.00 | 4.83 | 90 | 1014.3 |
| 20260502045410 | 15 | 131 | 3.2 | 3.2 | 0.00 | 0.00 | 4.83 | 90 | 1014.1 |
| 20260502044910 | 15 | 129 | 3.2 | 4.8 | 0.00 | 0.00 | 4.83 | 90 | 1013.9 |
| 20260502044410 | 15 | 130 | 3.2 | 4.8 | 0.00 | 0.00 | 4.83 | 90 | 1013.9 |
| 20260502043910 | 15 | 131 | 3.2 | 4.8 | 0.00 | 0.00 | 4.83 | 90 | 1013.7 |
| 20260502043410 | 15 | 131 | 3.2 | 3.2 | 0.00 | 0.00 | 4.83 | 90 | 1013.5 |
| 20260502042910 | 15 | 128 | 3.2 | 3.2 | 0.00 | 0.00 | 4.83 | 90 | 1013.4 |
| 20260502042411 | 15 | 130 | 4.8 | 4.8 | 0.00 | 0.00 | 4.83 | 90 | 1013.1 |
| 20260502041910 | 15 | 132 | 3.2 | 3.2 | 0.00 | 0.00 | 4.83 | 90 | 1013.1 |
| 20260502041410 | 15 | 131 | 3.2 | 3.2 | 0.00 | 0.00 | 4.83 | 91 | 1013.0 |
| 20260502040910 | 15 | 129 | 3.2 | 3.2 | 0.00 | 0.00 | 4.83 | 91 | 1013.1 |
| 20260502040410 | 15 | 130 | 3.2 | 3.2 | 0.00 | 0.00 | 4.83 | 91 | 1013.1 |
| 20260502035910 | 15 | 132 | 3.2 | 4.8 | 0.00 | 0.00 | 4.83 | 91 | 1013.2 |
| 20260502035410 | 15 | 133 | 3.2 | 3.2 | 0.00 | 0.00 | 4.83 | 91 | 1013.2 |
| 20260502034910 | 15 | 132 | 1.6 | 3.2 | 0.00 | 0.00 | 4.83 | 92 | 1013.3 |
| 20260502034410 | 15 | 122 | 1.6 | 1.6 | 0.00 | 0.00 | 4.83 | 92 | 1013.2 |
| 20260502033910 | 15 | 96 | 1.6 | 1.6 | 0.00 | 0.00 | 4.83 | 92 | 1013.2 |
| 20260502033410 | 15 | 94 | 1.6 | 1.6 | 0.00 | 0.00 | 4.83 | 92 | 1013.3 |
| 20260502032910 | 15 | 96 | 1.6 | 1.6 | 0.00 | 0.00 | 4.83 | 92 | 1013.2 |
| 20260502032410 | 15 | 94 | 1.6 | 1.6 | 0.00 | 0.00 | 4.83 | 93 | 1012.8 |
| 20260502031910 | 15 | 115 | 1.6 | 3.2 | 0.03 | 0.00 | 4.83 | 93 | 1012.9 |
| 20260502031410 | 16 | 106 | 1.6 | 3.2 | 0.03 | 0.00 | 4.83 | 93 | 1012.8 |
| 20260502030911 | 16 | 125 | 1.6 | 3.2 | 0.03 | 0.00 | 4.83 | 93 | 1012.9 |
| 20260502030410 | 16 | 115 | 1.6 | 3.2 | 0.03 | 0.00 | 4.83 | 93 | 1012.7 |
| 20260502025910 | 16 | 126 | 3.2 | 3.2 | 0.03 | 0.00 | 4.83 | 93 | 1012.6 |
| 20260502025411 | 16 | 131 | 3.2 | 3.2 | 0.03 | 0.00 | 4.83 | 94 | 1012.5 |
| 20260502024910 | 16 | 127 | 3.2 | 3.2 | 0.03 | 0.00 | 4.83 | 94 | 1012.4 |
| 20260502024411 | 16 | 132 | 3.2 | 3.2 | 0.03 | 0.00 | 4.83 | 94 | 1012.1 |
| 20260502023912 | 16 | 128 | 1.6 | 3.2 | 0.03 | 0.00 | 4.83 | 94 | 1012.0 |
| 20260502023410 | 16 | 127 | 3.2 | 3.2 | 0.03 | 0.00 | 4.83 | 94 | 1012.0 |
| 20260502022911 | 16 | 128 | 1.6 | 3.2 | 0.03 | 0.00 | 4.83 | 94 | 1011.7 |
| 20260502022410 | 16 | 132 | 3.2 | 6.4 | 0.03 | 0.00 | 4.83 | 94 | 1011.7 |
| 20260502021910 | 16 | 133 | 3.2 | 3.2 | 0.00 | 0.00 | 4.83 | 94 | 1011.7 |
| 20260502021410 | 16 | 132 | 1.6 | 3.2 | 0.00 | 0.00 | 4.83 | 94 | 1012.0 |
| 20260502020910 | 16 | 131 | 1.6 | 3.2 | 0.00 | 0.00 | 4.80 | 94 | 1011.9 |
| 20260502020411 | 16 | 129 | 1.6 | 3.2 | 0.00 | 0.00 | 4.80 | 94 | 1011.6 |
| 20260502015910 | 16 | 129 | 3.2 | 3.2 | 0.00 | 0.00 | 4.80 | 94 | 1011.6 |
| 20260502015410 | 16 | 132 | 6.4 | 6.4 | 0.00 | 0.00 | 4.80 | 94 | 1011.5 |
| 20260502014911 | 16 | 130 | 6.4 | 8.0 | 0.00 | 0.00 | 4.80 | 94 | 1011.5 |
| 20260502014410 | 16 | 133 | 4.8 | 4.8 | 0.00 | 0.00 | 4.80 | 94 | 1011.5 |
| 20260502013911 | 16 | 131 | 4.8 | 6.4 | 0.00 | 0.00 | 4.80 | 94 | 1011.3 |
| 20260502013410 | 16 | 133 | 4.8 | 6.4 | 0.00 | 0.00 | 4.80 | 94 | 1011.1 |
| 20260502012910 | 16 | 133 | 4.8 | 4.8 | 0.00 | 0.00 | 4.80 | 94 | 1010.7 |
| 20260502012410 | 16 | 127 | 4.8 | 6.4 | 0.00 | 0.00 | 4.80 | 94 | 1011.0 |
| 20260502011911 | 16 | 131 | 4.8 | 6.4 | 0.03 | 0.00 | 4.78 | 94 | 1010.8 |
| 20260502011411 | 16 | 131 | 6.4 | 6.4 | 0.15 | 0.00 | 4.78 | 94 | 1011.2 |
| 20260502010910 | 16 | 133 | 6.4 | 6.4 | 0.15 | 0.00 | 4.78 | 94 | 1011.4 |
| 20260502010410 | 16 | 129 | 6.4 | 6.4 | 0.30 | 0.00 | 4.78 | 94 | 1011.3 |
| 20260502005910 | 16 | 135 | 4.8 | 6.4 | 0.30 | 0.00 | 4.78 | 94 | 1011.2 |
| 20260502005410 | 16 | 132 | 6.4 | 6.4 | 0.41 | 0.00 | 4.78 | 94 | 1010.9 |
| 20260502004911 | 16 | 132 | 4.8 | 6.4 | 0.41 | 0.00 | 4.80 | 94 | 1010.7 |
| 20260502004410 | 16 | 132 | 6.4 | 6.4 | 0.41 | 0.00 | 4.80 | 94 | 1010.5 |
| 20260502003910 | 16 | 132 | 6.4 | 6.4 | 0.43 | 0.00 | 4.80 | 94 | 1010.3 |
| 20260502003410 | 16 | 123 | 6.4 | 8.0 | 0.43 | 0.00 | 4.80 | 94 | 1010.0 |
| 20260502002910 | 16 | 111 | 6.4 | 6.4 | 0.43 | 0.00 | 4.80 | 94 | 1009.8 |
| 20260502002410 | 16 | 133 | 4.8 | 6.4 | 0.64 | 0.00 | 4.98 | 94 | 1009.9 |
| 20260502001910 | 17 | 132 | 6.4 | 9.7 | 0.64 | 0.00 | 5.00 | 94 | 1009.4 |
| 20260502001410 | 17 | 131 | 8.0 | 11.3 | 0.64 | 0.00 | 5.00 | 94 | 1009.3 |
| 20260502000910 | 17 | 163 | 6.4 | 14.5 | 0.76 | 0.00 | 4.98 | 94 | 1009.4 |
| 20260502000410 | 17 | 222 | 12.9 | 16.1 | 0.76 | 0.00 | 5.16 | 94 | 1009.7 |
| 20260501235911 | 17 | 164 | 11.3 | 16.1 | 0.56 | 0.00 | 4.90 | 94 | 1009.3 |
| 20260501235410 | 17 | 219 | 9.7 | 19.3 | 0.15 | 0.00 | 4.55 | 94 | 1009.8 |
| 20260501234910 | 17 | 170 | 9.7 | 14.5 | 0.08 | 0.00 | 4.45 | 94 | 1009.1 |
| 20260501233945 | 17 | 129 | 3.2 | 4.8 | 0.08 | 0.00 | 4.42 | 94 | 1007.6 |
| 20260501233410 | 17 | 100 | 6.4 | 17.7 | 0.05 | 0.00 | 4.42 | 94 | 1007.1 |
| 20260501232910 | 17 | 114 | 8.0 | 14.5 | 0.00 | 0.00 | 4.34 | 94 | 1007.0 |
| 20260501232410 | 17 | 120 | 4.8 | 9.7 | 0.00 | 0.00 | 4.34 | 94 | 1008.1 |
| 20260501231910 | 17 | 119 | 6.4 | 12.9 | 0.00 | 0.00 | 4.34 | 94 | 1007.0 |
| 20260501231410 | 17 | 103 | 8.0 | 12.9 | 0.00 | 0.00 | 4.34 | 94 | 1007.1 |
| 20260501230910 | 17 | 98 | 3.2 | 11.3 | 0.00 | 0.00 | 4.34 | 94 | 1007.1 |
| 20260501230410 | 17 | 121 | 3.2 | 3.2 | 0.00 | 0.00 | 4.34 | 94 | 1006.9 |
| 20260501225910 | 17 | 116 | 3.2 | 3.2 | 0.10 | 0.00 | 4.34 | 94 | 1007.4 |
| 20260501225411 | 17 | 120 | 3.2 | 3.2 | 0.10 | 0.00 | 4.34 | 94 | 1006.9 |
| 20260501224910 | 17 | 122 | 3.2 | 3.2 | 0.10 | 0.00 | 4.34 | 94 | 1006.9 |
| 20260501224411 | 17 | 108 | 3.2 | 3.2 | 0.13 | 0.00 | 4.34 | 94 | 1006.9 |
| 20260501223910 | 17 | 123 | 3.2 | 6.4 | 0.13 | 0.00 | 4.34 | 94 | 1007.0 |
| 20260501223410 | 17 | 55 | 3.2 | 6.4 | 0.13 | 0.00 | 4.34 | 94 | 1007.3 |
| 20260501222910 | 17 | 66 | 4.8 | 11.3 | 0.25 | 0.00 | 4.34 | 94 | 1007.3 |
| 20260501222410 | 17 | 47 | 4.8 | 8.0 | 0.25 | 0.00 | 4.47 | 94 | 1007.4 |
| 20260501221910 | 17 | 122 | 3.2 | 8.0 | 0.25 | 0.00 | 4.50 | 94 | 1007.6 |
| 20260501221410 | 17 | 93 | 4.8 | 9.7 | 0.23 | 0.00 | 4.50 | 94 | 1007.8 |
| 20260501220910 | 18 | 130 | 3.2 | 3.2 | 0.23 | 0.00 | 4.50 | 94 | 1007.8 |
| 20260501220411 | 17 | 124 | 3.2 | 3.2 | 0.23 | 0.00 | 4.42 | 94 | 1007.7 |
| 20260501215911 | 18 | 132 | 3.2 | 4.8 | 0.15 | 0.00 | 4.42 | 94 | 1008.0 |
| 20260501215411 | 18 | 97 | 4.8 | 14.5 | 0.15 | 0.00 | 4.34 | 94 | 1008.1 |
| 20260501214910 | 18 | 130 | 1.6 | 3.2 | 0.18 | 0.00 | 4.34 | 94 | 1008.3 |
| 20260501214410 | 18 | 129 | 4.8 | 4.8 | 0.18 | 0.00 | 4.34 | 94 | 1008.4 |
| 20260501213910 | 18 | 130 | 3.2 | 3.2 | 0.28 | 0.00 | 4.34 | 94 | 1008.6 |
| 20260501213410 | 18 | 131 | 4.8 | 4.8 | 0.71 | 0.00 | 4.34 | 94 | 1008.5 |
| 20260501212910 | 18 | 114 | 3.2 | 3.2 | 1.70 | 0.00 | 4.34 | 94 | 1008.7 |
| 20260501212411 | 18 | 129 | 3.2 | 3.2 | 1.57 | 0.00 | 2.59 | 94 | 1008.6 |
| 20260501211910 | 18 | 129 | 3.2 | 3.2 | 1.78 | 0.00 | 2.54 | 94 | 1008.7 |
| 20260501211410 | 18 | 66 | 3.2 | 4.8 | 1.93 | 0.00 | 2.54 | 94 | 1008.3 |
| 20260501210910 | 18 | 57 | 4.8 | 4.8 | 2.01 | 0.00 | 2.54 | 94 | 1008.0 |
| 20260501210410 | 18 | 133 | 3.2 | 4.8 | 2.03 | 0.00 | 2.54 | 94 | 1008.0 |
| 20260501205910 | 18 | 128 | 4.8 | 4.8 | 2.03 | 0.00 | 2.54 | 94 | 1007.6 |
| 20260501205410 | 18 | 130 | 3.2 | 4.8 | 2.01 | 0.00 | 2.51 | 94 | 1006.8 |
| 20260501204910 | 18 | 69 | 8.0 | 16.1 | 2.46 | 0.00 | 2.97 | 94 | 1006.3 |
| 20260501204411 | 18 | 140 | 4.8 | 6.4 | 2.46 | 0.00 | 2.97 | 93 | 1007.0 |
| 20260501203911 | 18 | 136 | 4.8 | 6.4 | 2.46 | 0.00 | 2.87 | 93 | 1007.0 |
| 20260501203410 | 18 | 130 | 4.8 | 6.4 | 3.28 | 0.00 | 3.56 | 93 | 1006.8 |
| 20260501202911 | 18 | 111 | 4.8 | 6.4 | 0.38 | 0.00 | 1.70 | 90 | 1008.5 |
| 20260501201910 | 18 | 108 | 6.4 | 6.4 | 0.38 | 0.00 | 0.66 | 90 | 1008.2 |
| 20260501201411 | 18 | 101 | 4.8 | 6.4 | 0.46 | 0.00 | 0.61 | 90 | 1006.0 |
| 20260501200911 | 18 | 130 | 3.2 | 4.8 | 0.53 | 0.00 | 0.61 | 89 | 1005.3 |
| 20260501200410 | 18 | 94 | 3.2 | 4.8 | 0.53 | 0.00 | 0.61 | 89 | 1005.4 |
| 20260501195910 | 18 | 358 | 4.8 | 6.4 | 0.53 | 0.00 | 0.61 | 89 | 1005.0 |
| 20260501195410 | 18 | 357 | 3.2 | 4.8 | 0.53 | 0.00 | 0.61 | 89 | 1004.8 |
| 20260501194910 | 18 | 359 | 4.8 | 6.4 | 0.56 | 0.00 | 0.64 | 89 | 1005.3 |
| 20260501194410 | 18 | 357 | 3.2 | 4.8 | 0.56 | 0.00 | 0.64 | 88 | 1005.4 |
| 20260501193910 | 18 | 0 | 3.2 | 3.2 | 0.41 | 0.00 | 0.48 | 88 | 1006.6 |
| 20260501193410 | 18 | 358 | 4.8 | 6.4 | 0.41 | 0.00 | 0.48 | 87 | 1007.2 |
| 20260501192910 | 19 | 16 | 3.2 | 4.8 | 0.08 | 0.00 | 0.46 | 86 | 1007.1 |
| 20260501192412 | 19 | 344 | 4.8 | 6.4 | 0.08 | 0.00 | 0.41 | 85 | 1007.0 |
| 20260501191910 | 20 | 359 | 3.2 | 4.8 | 0.00 | 0.00 | 0.18 | 84 | 1007.4 |
| 20260501191411 | 20 | 359 | 3.2 | 4.8 | 0.00 | 0.00 | 0.10 | 82 | 1007.2 |
| 20260501190910 | 20 | 359 | 4.8 | 6.4 | 0.00 | 0.00 | 0.08 | 82 | 1007.4 |
| 20260501190411 | 20 | 0 | 3.2 | 4.8 | 0.00 | 0.00 | 0.08 | 82 | 1007.3 |
| 20260501185910 | 20 | 359 | 4.8 | 6.4 | 0.00 | 0.00 | 0.10 | 82 | 1007.5 |
| 20260501184910 | 20 | 358 | 3.2 | 4.8 | 0.00 | 0.00 | 0.10 | 83 | 1007.4 |
| 20260501184410 | 20 | 359 | 4.8 | 6.4 | 0.00 | 0.00 | 0.10 | 83 | 1007.5 |
| 20260501183911 | 20 | 13 | 20.9 | 30.6 | 0.00 | 0.00 | 0.10 | 84 | 1008.0 |
| 20260501183411 | 20 | 19 | 17.7 | 37.0 | 0.00 | 0.00 | 0.10 | 84 | 1007.9 |
| 20260501182910 | 20 | 6 | 22.5 | 41.8 | 0.03 | 0.00 | 0.10 | 85 | 1007.8 |
| 20260501182410 | 20 | 10 | 22.5 | 43.5 | 0.03 | 0.00 | 0.10 | 85 | 1007.9 |
| 20260501181910 | 19 | 12 | 20.9 | 38.6 | 0.03 | 0.00 | 0.05 | 86 | 1008.0 |
| 20260501181410 | 19 | 7 | 19.3 | 33.8 | 0.03 | 0.00 | 0.05 | 86 | 1007.9 |
| 20260501180910 | 19 | 11 | 17.7 | 33.8 | 0.03 | 0.00 | 0.05 | 86 | 1008.0 |
| 20260501180411 | 19 | 14 | 20.9 | 41.8 | 0.03 | 0.00 | 0.05 | 87 | 1007.7 |
| 20260501175911 | 19 | 11 | 16.1 | 24.1 | 0.03 | 0.00 | 0.05 | 87 | 1007.8 |
| 20260501175410 | 19 | 26 | 16.1 | 35.4 | 0.03 | 0.00 | 0.05 | 87 | 1007.8 |
| 20260501174910 | 19 | 8 | 19.3 | 33.8 | 0.03 | 0.00 | 0.05 | 88 | 1007.9 |
| 20260501174410 | 19 | 7 | 24.1 | 40.2 | 0.03 | 0.00 | 0.05 | 88 | 1007.9 |
| 20260501172911 | 20 | 12 | 4.8 | 11.3 | 0.00 | 0.00 | 0.05 | 87 | 1008.7 |
| 20260501172410 | 20 | 0 | 6.4 | 6.4 | 0.00 | 0.00 | 0.05 | 87 | 1008.7 |
| 20260501171910 | 20 | 358 | 3.2 | 3.2 | 0.00 | 0.00 | 0.03 | 87 | 1009.0 |
| 20260501171410 | 20 | 358 | 3.2 | 3.2 | 0.00 | 0.00 | 0.03 | 87 | 1009.0 |
| 20260501170910 | 20 | 356 | 1.6 | 3.2 | 0.00 | 0.00 | 0.03 | 87 | 1009.1 |
| 20260501170410 | 20 | 357 | 1.6 | 3.2 | 0.00 | 0.00 | 0.03 | 86 | 1009.3 |
| 20260501165911 | 20 | 356 | 3.2 | 3.2 | 0.00 | 0.00 | 0.03 | 86 | 1009.7 |
| 20260501165410 | 21 | 357 | 1.6 | 3.2 | 0.00 | 0.00 | 0.03 | 86 | 1009.6 |
| 20260501164910 | 21 | 31 | 1.6 | 6.4 | 0.00 | 0.00 | 0.03 | 86 | 1009.5 |
| 20260501164410 | 21 | 101 | 9.7 | 14.5 | 0.00 | 0.00 | 0.03 | 86 | 1009.4 |
| 20260501163911 | 21 | 108 | 9.7 | 14.5 | 0.00 | 0.00 | 0.03 | 86 | 1009.2 |
| 20260501163411 | 21 | 99 | 9.7 | 14.5 | 0.00 | 0.00 | 0.03 | 86 | 1009.1 |
| 20260501162911 | 21 | 95 | 11.3 | 14.5 | 0.00 | 0.00 | 0.03 | 86 | 1009.3 |
| 20260501162410 | 21 | 97 | 11.3 | 14.5 | 0.00 | 0.00 | 0.03 | 86 | 1009.4 |
| 20260501161911 | 21 | 87 | 9.7 | 14.5 | 0.00 | 0.00 | 0.03 | 86 | 1009.5 |
| 20260501161410 | 21 | 85 | 11.3 | 14.5 | 0.00 | 0.00 | 0.03 | 86 | 1009.3 |
| 20260501155910 | 21 | 71 | 6.4 | 17.7 | 0.00 | 0.00 | 0.03 | 86 | 1009.1 |
| 20260501155410 | 21 | 84 | 9.7 | 12.9 | 0.00 | 0.00 | 0.03 | 86 | 1008.9 |
| 20260501154910 | 21 | 96 | 9.7 | 32.2 | 0.00 | 0.00 | 0.03 | 86 | 1008.9 |
| 20260501153910 | 21 | 84 | 22.5 | 27.4 | 0.00 | 0.00 | 0.03 | 86 | 1009.2 |
| 20260501153411 | 21 | 85 | 19.3 | 27.4 | 0.00 | 0.00 | 0.03 | 85 | 1009.0 |
| 20260501152911 | 21 | 85 | 19.3 | 25.7 | 0.00 | 0.00 | 0.03 | 84 | 1009.1 |
| 20260501145911 | 21 | 85 | 4.8 | 6.4 | 0.00 | 0.00 | 0.03 | 84 | 1008.7 |